[[{"header":{"parameterUnit":"m.s-1","parameterCategory":1,"la1":30.2991,"la2":30.254,"lo1":-89.0895,"lo2":-89.0444,"dy":0.0017,"dx":0.0017,"nx":28,"ny":28,"refTime":"2025-03-26T03:00:00:Z","depth":0,"parameterNumber":2,"parameterNumberName":"U-component_of_WINDS"},"data":[0,0,0,0,0,0,0,0,0,0,0,0,0,0,0,0,0,0,0,0,0,0,0,0,0,0,0,0,0,0,0,0,0,0,0,0,0,0,0,0,0,0,0,0,0,0,0,0,0,0,0,0,0,0,0,0,0,0,-4.7016,-4.7016,0,-4.7085,-4.7086,-4.7087,-4.7069,-4.7067,-4.7066,-4.7064,-4.7136,-4.7139,-4.7142,0,0,0,0,0,0,0,0,0,0,0,0,0,-4.6868,-4.687,-4.7015,-4.7016,-4.7017,-4.7085,-4.7086,-4.7087,-4.7069,-4.7067,-4.7065,-4.7064,-4.7134,-4.7138,-4.7142,0,0,0,0,0,0,0,0,0,0,0,0,0,-4.6934,-4.6871,-4.7015,-4.7016,-4.7017,-4.7085,-4.7086,-4.7087,-4.7069,-4.7067,-4.7065,-4.7063,-4.7133,-4.7138,-4.7143,-4.7214,0,0,-4.7157,-4.7159,0,0,0,0,0,0,0,0,-4.693,-4.694,-4.7015,-4.7016,-4.7017,-4.7066,-4.706,-4.713,-4.707,-4.7049,-4.7064,-4.7062,-4.7114,-4.712,-4.7138,-4.7217,-4.722,-4.7158,-4.7161,-4.7163,-4.7164,0,0,0,0,0,0,0,-4.6926,-4.6936,-4.7043,-4.7016,-4.7018,-4.7014,-4.7021,-4.7073,-4.7093,-4.7051,-4.705,-4.7058,-4.7114,-4.7133,-4.7139,-4.7221,-4.7157,-4.7162,-4.7165,-4.7167,-4.7365,-4.7367,0,0,0,0,0,0,-4.692,-4.6933,-4.7041,-4.7045,-4.6968,-4.7018,-4.7026,-4.7053,-4.7092,-4.7096,-4.706,-4.7057,-4.7126,-4.7134,-4.7142,-4.7228,-4.7163,-4.7167,-4.717,-4.7362,-4.7365,-4.7368,0,0,0,0,0,0,-4.6917,-4.693,-4.7038,-4.6989,-4.7002,-4.7023,-4.7053,-4.7055,-4.7074,-4.7099,-4.7102,-4.7076,-4.7125,-4.7135,-4.7197,-4.7231,-4.7169,-4.7174,-4.736,-4.7363,-4.7367,-4.7402,0,0,0,0,0,0,-4.6913,-4.6929,-4.6956,-4.6989,-4.7005,-4.7091,-4.7055,-4.7058,-4.7082,-4.7079,-4.7115,-4.7118,-4.7124,-4.719,-4.7201,-4.7236,-4.7177,-4.7357,-4.7361,-4.7366,-4.7398,-4.7406,-4.7414,0,0,0,0,0,-4.6908,-4.6962,-4.6957,-4.697,-4.7039,-4.7093,-4.7102,-4.7107,-4.7085,-4.7113,-4.7129,-4.7117,-4.7226,-4.7196,-4.7209,-4.7246,-4.7354,-4.736,-4.7365,-4.7394,-4.7405,-4.7413,0,0,0,0,0,0,-4.6931,-4.6966,-4.6961,-4.7028,-4.7058,-4.709,-4.7124,-4.7118,-4.7154,-4.7149,-4.7155,-4.7163,-4.7226,-4.7243,-4.7209,-4.7318,-4.7287,-4.7295,-4.7304,-4.7315,-4.7322,-4.7316,-4.7181,0,0,0,0,0,-4.6944,-4.6985,-4.7014,-4.707,-4.7086,-4.7103,-4.7126,-4.7129,-4.7159,-4.7172,-4.7192,-4.7223,-4.7264,-4.7291,-4.733,-4.7401,-4.7409,-4.7433,-4.7441,-4.7448,-4.7454,-4.7494,-4.7505,-4.7386,-4.7386,-4.7386,0,0,-4.697,-4.6995,-4.702,-4.7076,-4.7099,-4.7142,-4.7113,-4.7159,-4.7191,-4.7178,-4.7237,-4.7255,-4.7289,-4.7356,-4.7387,-4.7372,-4.7489,-4.7454,-4.7459,-4.7462,-4.7501,-4.7512,-4.7522,-4.7389,-4.7389,-4.7388,0,0,-4.7041,-4.7064,-4.7114,-4.7138,-4.7174,-4.7186,-4.7198,-4.7232,-4.7243,-4.7303,-4.7295,-4.7334,-4.7404,-4.7429,-4.7452,-4.7536,-4.7527,-4.7549,-4.7589,-4.7628,-4.7638,-4.7646,-4.7676,-4.7687,-4.7556,-4.7556,-4.7556,0,-4.7069,-4.7133,-4.714,-4.7188,-4.7212,-4.7205,-4.7256,-4.728,-4.7327,-4.7344,-4.7328,-4.7417,-4.744,-4.7513,-4.7534,-4.7553,-4.7567,-4.7543,-4.7636,-4.7645,-4.7652,-4.7681,-4.7692,-4.7558,-4.7558,-4.7558,-4.7558,0,-4.7166,-4.7211,-4.7247,-4.7294,-4.7323,-4.7372,-4.7388,-4.7417,-4.7418,-4.7432,-4.7494,-4.7522,-4.7567,-4.7585,-4.7586,-4.766,-4.7649,-4.7634,-4.7603,-4.7666,-4.7693,-4.7704,-4.7562,-4.7561,-4.756,-4.756,0,0,-4.7249,-4.7302,-4.7314,-4.7336,-4.7378,-4.7412,-4.7463,-4.7508,-4.7533,-4.7567,-4.7609,-4.7671,-4.7658,-4.7683,-4.7687,-4.7722,-4.7788,-4.7703,-4.7704,-4.7717,-4.7871,-4.7881,-4.7893,-4.7783,-4.7785,-4.7787,-4.7868,0,-4.7322,-4.7409,-4.7419,-4.7497,-4.7539,-4.7535,-4.7579,-4.7609,-4.7625,-4.7663,-4.768,-4.7724,-4.7704,-4.7719,-4.7754,-4.7772,-4.7818,-4.7767,-4.7822,-4.7824,-4.7811,-4.7907,-4.7917,-4.7991,-4.7879,-4.788,-4.7882,0,-4.7418,-4.7456,-4.7538,-4.7576,-4.7594,-4.7633,-4.7676,-4.7713,-4.7749,-4.7757,-4.7788,-4.7788,-4.7841,-4.781,-4.7883,-4.7848,-4.7872,-4.7885,-4.7888,-4.7891,-4.7855,-4.7912,-4.8015,-4.8026,-4.7898,-4.7897,-4.7896,0,-4.7469,-4.7541,-4.76,-4.7619,-4.7664,-4.7692,-4.7712,-4.7746,-4.7773,-4.7812,-4.783,-4.7874,-4.7898,-4.7932,-4.7945,-4.7921,-4.8018,-4.7988,-4.8027,-4.8026,-4.8044,-4.8043,-4.8151,-4.8063,-4.8063,-4.8063,-4.8063,0,-4.7548,-4.7598,-4.7623,-4.7659,-4.7716,-4.7729,-4.7785,-4.7804,-4.7835,-4.7875,-4.7875,-4.7913,-4.7929,-4.797,-4.7981,-4.804,-4.8051,-4.806,-4.8062,-4.8059,-4.8058,-4.8072,-4.8067,-4.8066,-4.8065,-4.8065,-4.8064,0,-4.7613,-4.7632,-4.7696,-4.7735,-4.7746,-4.7786,-4.782,-4.7856,-4.7872,-4.7923,-4.7936,-4.7962,-4.801,-4.8028,-4.8087,-4.8094,-4.8162,-4.8161,-4.815,-4.815,-4.8188,-4.8183,-4.8308,-4.8325,-4.8227,-4.8228,-4.8229,0,-4.7661,-4.77,-4.7744,-4.7771,-4.7793,-4.7837,-4.7865,-4.788,-4.791,-4.7956,-4.7986,-4.8035,-4.8073,-4.8152,-4.8176,-4.8221,-4.822,-4.8261,-4.8227,-4.8223,-4.8219,-4.8216,-4.822,-4.8266,-4.8267,-4.8268,-4.8269,0,-4.7744,-4.7753,-4.7793,-4.7839,-4.7873,-4.7909,-4.7945,-4.7967,-4.7988,-4.8022,-4.8071,-4.8102,-4.8164,-4.8212,-4.8259,-4.8281,-4.8278,-4.828,-4.8291,-4.8287,-4.8279,-4.8283,-4.8166,-4.8276,-4.8275,-4.8275,-4.8274,-4.8274,-4.7801,-4.7836,-4.7873,-4.792,-4.7948,-4.7982,-4.8018,-4.804,-4.8082,-4.8133,-4.814,-4.8194,-4.8231,-4.8295,-4.8319,-4.8362,-4.8351,-4.8367,-4.8371,-4.8375,-4.8377,-4.8274,-4.8371,-4.8371,-4.8371,-4.8371,-4.8371,0,-4.7883,-4.7908,-4.7951,-4.8001,-4.8038,-4.8035,-4.8074,-4.8105,-4.8153,-4.8188,-4.8228,-4.8287,-4.8335,-4.8364,-4.8412,-4.8441,-4.8441,-4.8453,-4.845,-4.8455,-4.8384,-4.8369,-4.8452,-4.8452,-4.8452,-4.8452,-4.8452,-4.8452,-4.793,-4.7989,-4.8003,-4.8077,-4.8102,-4.8154,-4.8178,-4.8209,-4.8238,-4.8303,-4.8343,-4.8363,-4.8396,-4.8448,-4.8492,-4.85,-4.8517,-4.853,-4.8536,-4.8469,-4.846,-4.8452,-4.8438,-4.8534,-4.8534,-4.8603,-4.8604,-4.8604]},{"header":{"parameterUnit":"m.s-1","parameterCategory":1,"la1":30.2991,"la2":30.254,"lo1":-89.0895,"lo2":-89.0444,"dy":0.0017,"dx":0.0017,"nx":28,"ny":28,"refTime":"2025-03-26T03:00:00:Z","depth":0,"parameterNumber":3,"parameterNumberName":"V-component_of_WINDS"},"data":[0,0,0,0,0,0,0,0,0,0,0,0,0,0,0,0,0,0,0,0,0,0,0,0,0,0,0,0,0,0,0,0,0,0,0,0,0,0,0,0,0,0,0,0,0,0,0,0,0,0,0,0,0,0,0,0,0,0,2.3731,2.3732,0,2.3812,2.3813,2.3814,2.3919,2.3921,2.3923,2.3924,2.4001,2.4002,2.4002,0,0,0,0,0,0,0,0,0,0,0,0,0,2.3664,2.3664,2.3731,2.3732,2.3733,2.3812,2.3813,2.3814,2.3919,2.3921,2.3923,2.3925,2.4001,2.4002,2.4002,0,0,0,0,0,0,0,0,0,0,0,0,0,2.3713,2.3665,2.3731,2.3795,2.3801,2.3811,2.3813,2.3814,2.3918,2.3921,2.3924,2.3926,2.4001,2.4002,2.4002,2.3954,0,0,2.4004,2.4005,0,0,0,0,0,0,0,0,2.371,2.3716,2.3784,2.379,2.3798,2.3858,2.3818,2.3861,2.3918,2.3874,2.3924,2.3927,2.3951,2.3956,2.3966,2.3958,2.3961,2.4004,2.4005,2.4005,2.4005,0,0,0,0,0,0,0,2.3707,2.3713,2.3763,2.3785,2.3793,2.3819,2.3828,2.3826,2.3897,2.3878,2.3886,2.3894,2.3955,2.3965,2.3968,2.3962,2.4004,2.4005,2.4005,2.4006,2.3922,2.392,0,0,0,0,0,0,2.3694,2.3709,2.376,2.3765,2.376,2.3818,2.3829,2.3836,2.3897,2.3909,2.3892,2.3899,2.3962,2.3967,2.3971,2.3921,2.4005,2.4006,2.4006,2.3925,2.3922,2.3919,0,0,0,0,0,0,2.3693,2.3698,2.3757,2.3739,2.3749,2.3816,2.3823,2.3836,2.3846,2.3908,2.392,2.3888,2.3964,2.397,2.3959,2.3925,2.4006,2.4007,2.3928,2.3924,2.392,2.3819,0,0,0,0,0,0,2.369,2.3697,2.368,2.3738,2.3749,2.3744,2.3821,2.3836,2.3847,2.3857,2.3908,2.3919,2.3967,2.3957,2.3959,2.3927,2.4007,2.3931,2.3926,2.3922,2.3825,2.3812,2.38,0,0,0,0,0,2.3687,2.3646,2.3678,2.3684,2.373,2.3742,2.3748,2.3806,2.3844,2.3827,2.3868,2.3917,2.3928,2.3955,2.3959,2.3926,2.3934,2.3928,2.3922,2.3831,2.3814,2.38,0,0,0,0,0,0,2.3579,2.3655,2.3691,2.3668,2.3698,2.3759,2.374,2.3786,2.3804,2.3812,2.3881,2.3892,2.3872,2.3898,2.3927,2.3884,2.3939,2.3933,2.3868,2.3853,2.3841,2.3835,2.4008,0,0,0,0,0,2.3553,2.3557,2.3623,2.3595,2.3609,2.3672,2.3679,2.3721,2.3754,2.3767,2.3806,2.3835,2.3846,2.3851,2.3863,2.383,2.3843,2.3809,2.3796,2.3786,2.378,2.3766,2.3753,2.39,2.39,2.39,0,0,2.3497,2.3539,2.3538,2.3575,2.3603,2.3606,2.3681,2.368,2.3683,2.3766,2.3759,2.3789,2.3825,2.3803,2.3795,2.3824,2.3743,2.3778,2.3769,2.377,2.3759,2.3745,2.3732,2.3896,2.3896,2.3897,0,0,2.3399,2.3431,2.3413,2.3441,2.3484,2.3526,2.3521,2.3577,2.3601,2.3595,2.3658,2.3662,2.3677,2.3702,2.3716,2.363,2.3677,2.3632,2.3566,2.3552,2.354,2.353,2.3501,2.3489,2.3626,2.3626,2.3626,0,2.3324,2.3332,2.3397,2.3394,2.3409,2.3487,2.3469,2.3492,2.3536,2.3544,2.3576,2.36,2.363,2.3616,2.3595,2.3603,2.3601,2.3626,2.3537,2.3527,2.3519,2.3492,2.348,2.362,2.3621,2.3622,2.3622,0,2.324,2.3244,2.3224,2.3268,2.3281,2.3269,2.3332,2.3337,2.3379,2.3418,2.3411,2.3451,2.3474,2.3474,2.3513,2.3465,2.3482,2.3524,2.358,2.3498,2.3474,2.3464,2.3612,2.3614,2.3616,2.3617,0,0,2.3073,2.3155,2.3147,2.3169,2.3223,2.3227,2.322,2.3245,2.3249,2.3276,2.3272,2.3286,2.3326,2.3342,2.3385,2.3373,2.3304,2.3417,2.3419,2.3395,2.3255,2.3224,2.321,2.3335,2.3333,2.3332,2.3253,0,2.2986,2.298,2.304,2.3017,2.3023,2.3099,2.3093,2.3125,2.3161,2.3171,2.3211,2.3219,2.3271,2.3282,2.3273,2.3314,2.3276,2.332,2.3332,2.3331,2.3321,2.3197,2.3163,2.3086,2.3243,2.3242,2.324,0,2.2882,2.2908,2.2887,2.2945,2.2949,2.2943,2.2972,2.298,2.3018,2.3046,2.3066,2.3116,2.3113,2.3166,2.3163,2.3192,2.32,2.3221,2.3219,2.3223,2.3281,2.3198,2.3063,2.3052,2.3226,2.3227,2.3228,0,2.2765,2.2794,2.2786,2.2802,2.2868,2.2862,2.289,2.2931,2.2943,2.2968,2.2977,2.2999,2.3012,2.3028,2.3084,2.3117,2.3074,2.3132,2.3097,2.3095,2.3084,2.3084,2.2949,2.3088,2.3088,2.3089,2.3089,0,2.2661,2.2645,2.2734,2.2729,2.2714,2.2783,2.2766,2.28,2.2837,2.2839,2.2905,2.2906,2.2979,2.2987,2.303,2.3022,2.3026,2.3049,2.306,2.3043,2.304,2.3049,2.3056,2.3086,2.3086,2.3087,2.3087,0,2.2527,2.2586,2.2583,2.2647,2.2663,2.2649,2.2704,2.2702,2.2744,2.2746,2.2751,2.2815,2.2829,2.2887,2.2913,2.2942,2.292,2.2942,2.2907,2.2915,2.2878,2.2881,2.2744,2.273,2.2877,2.2875,2.2874,0,2.2457,2.2448,2.2513,2.252,2.2545,2.2556,2.257,2.2637,2.2648,2.2693,2.2685,2.2705,2.2725,2.2744,2.2792,2.2813,2.2837,2.2788,2.2841,2.2825,2.2838,2.2838,2.2838,2.2777,2.2775,2.2773,2.2772,0,2.2328,2.2358,2.2376,2.2405,2.242,2.2446,2.2474,2.2477,2.2551,2.2561,2.2577,2.2593,2.2622,2.2641,2.2671,2.2698,2.2747,2.2755,2.2748,2.2731,2.2712,2.2723,2.2877,2.2758,2.2759,2.276,2.2761,2.2762,2.2225,2.2221,2.2267,2.2285,2.2315,2.2341,2.2343,2.2386,2.2402,2.2432,2.2471,2.2483,2.2523,2.2569,2.2592,2.2602,2.2629,2.2619,2.2617,2.2613,2.2605,2.271,2.2608,2.2608,2.2608,2.2609,2.2609,0,2.21,2.2134,2.215,2.219,2.2205,2.2253,2.2288,2.2296,2.2307,2.2341,2.236,2.238,2.2399,2.245,2.2475,2.2473,2.2496,2.2477,2.2478,2.2484,2.2579,2.2583,2.2458,2.2458,2.2458,2.2458,2.2458,2.2458,2.2037,2.2033,2.2069,2.2081,2.2114,2.2129,2.2145,2.2169,2.2198,2.2217,2.2235,2.2269,2.231,2.2339,2.2358,2.2373,2.2379,2.2353,2.2374,2.2462,2.2477,2.249,2.2495,2.2353,2.2353,2.2279,2.2278,2.2277]}]]